TimeMST,TemperatureF,Dew PointF,Humidity,Sea Level PressureIn,VisibilityMPH,Wind Direction,Wind SpeedMPH,Gust SpeedMPH,PrecipitationIn,Events,Conditions,WindDirDegrees,DateUTC
12:53 AM,37.0,18.0,46,29.35,10.0,SE,5.8,-,N/A,,Overcast,140,2011-11-12 07:53:00
1:53 AM,37.9,19.9,48,29.33,10.0,SSE,15.0,-,N/A,,Overcast,160,2011-11-12 08:53:00
2:53 AM,37.0,21.9,54,29.30,10.0,South,11.5,-,N/A,,Overcast,170,2011-11-12 09:53:00
3:32 AM,32.0,28.4,87,29.36,1.8,South,13.8,-,0.00,Snow,Light Snow,180,2011-11-12 10:32:00
3:39 AM,32.0,28.4,87,29.36,1.0,SSE,3.5,-,0.00,Snow,Light Snow,150,2011-11-12 10:39:00
3:53 AM,32.0,30.0,92,29.32,2.0,ESE,6.9,-,0.00,Snow,Light Snow,110,2011-11-12 10:53:00
4:02 AM,32.0,30.2,93,29.35,1.8,SE,8.1,-,N/A,Snow,Light Snow,130,2011-11-12 11:02:00
4:22 AM,32.0,28.4,87,29.35,3.0,ESE,8.1,-,0.02,Snow,Light Snow,120,2011-11-12 11:22:00
4:34 AM,33.8,28.4,81,29.35,10.0,SSE,10.4,-,0.02,,Mostly Cloudy,160,2011-11-12 11:34:00
4:48 AM,33.8,28.4,81,29.35,2.5,South,9.2,-,0.02,Snow,Light Snow,170,2011-11-12 11:48:00
4:50 AM,33.8,28.4,81,29.35,1.5,South,10.4,16.1,0.02,Snow,Light Snow,190,2011-11-12 11:50:00
4:53 AM,32.0,30.0,92,29.35,0.8,South,12.7,18.4,0.02,Snow,Light Snow,180,2011-11-12 11:53:00
4:55 AM,32.0,30.2,93,29.35,0.8,South,12.7,18.4,N/A,Snow,Light Snow,170,2011-11-12 11:55:00
5:01 AM,32.0,30.2,93,29.35,0.8,SE,6.9,-,0.01,Snow,Light Snow,140,2011-11-12 12:01:00
5:06 AM,32.0,30.2,93,29.37,2.5,West,6.9,-,0.01,Snow,Light Snow,260,2011-11-12 12:06:00
5:10 AM,32.0,30.2,93,29.39,2.5,WNW,20.7,29.9,0.02,Snow,Light Snow,290,2011-11-12 12:10:00
5:15 AM,30.2,28.4,93,29.39,0.8,WNW,23.0,33.4,0.03,Snow,Light Snow,290,2011-11-12 12:15:00
5:22 AM,28.4,26.6,93,29.39,0.2,NW,18.4,36.8,0.03,Fog-Snow,Snow,310,2011-11-12 12:22:00
5:42 AM,28.4,26.6,93,29.41,1.0,NNW,11.5,-,0.04,Snow,Light Snow,330,2011-11-12 12:42:00
5:49 AM,28.4,26.6,93,29.42,0.5,NNW,13.8,18.4,0.04,Fog-Snow,Snow,340,2011-11-12 12:49:00
5:53 AM,28.9,27.0,92,29.45,0.5,NNW,11.5,18.4,0.04,Fog-Snow,Snow,340,2011-11-12 12:53:00
6:18 AM,28.4,26.6,93,29.44,1.0,North,3.5,-,0.02,Snow,Light Snow,350,2011-11-12 13:18:00
6:38 AM,28.4,26.6,93,29.45,0.8,Calm,Calm,-,0.04,Snow,Light Snow,0,2011-11-12 13:38:00
6:53 AM,28.0,27.0,96,29.49,0.8,Calm,Calm,-,0.05,Snow,Light Snow,0,2011-11-12 13:53:00
7:00 AM,28.4,26.6,93,29.45,0.8,Calm,Calm,-,0.01,Snow,Light Snow,0,2011-11-12 14:00:00
7:05 AM,28.4,26.6,93,29.45,2.0,Calm,Calm,-,0.01,Snow,Light Snow,0,2011-11-12 14:05:00
7:12 AM,28.4,26.6,93,29.45,7.0,NNE,3.5,-,0.01,Snow,Light Snow,20,2011-11-12 14:12:00
7:53 AM,27.0,21.9,81,29.52,0.8,WNW,25.3,33.4,0.01,Snow,Light Snow,300,2011-11-12 14:53:00
8:02 AM,24.8,21.2,86,29.49,0.2,NW,19.6,34.5,0.00,Fog-Snow,Snow,310,2011-11-12 15:02:00
8:12 AM,24.8,17.6,74,29.50,2.0,NW,25.3,33.4,0.00,Snow,Light Snow,320,2011-11-12 15:12:00
8:21 AM,24.8,17.6,74,29.50,5.0,NNW,17.3,28.8,0.00,Snow,Light Snow,330,2011-11-12 15:21:00
8:53 AM,26.1,14.0,60,29.58,10.0,NNW,16.1,25.3,0.00,,Overcast,330,2011-11-12 15:53:00
9:53 AM,26.1,12.0,55,29.63,8.0,NW,19.6,29.9,N/A,,Scattered Clouds,310,2011-11-12 16:53:00
10:53 AM,28.0,10.9,49,29.62,10.0,NW,18.4,23.0,N/A,,Clear,310,2011-11-12 17:53:00
11:53 AM,28.9,10.9,47,29.62,10.0,NW,24.2,28.8,N/A,,Scattered Clouds,310,2011-11-12 18:53:00
12:53 PM,30.0,12.0,47,29.62,10.0,WNW,12.7,-,N/A,,Mostly Cloudy,300,2011-11-12 19:53:00
1:53 PM,28.9,12.0,49,29.60,10.0,NW,11.5,-,N/A,,Overcast,310,2011-11-12 20:53:00
2:53 PM,28.9,12.9,51,29.61,10.0,West,11.5,24.2,N/A,,Overcast,270,2011-11-12 21:53:00
3:53 PM,28.0,14.0,56,29.63,10.0,West,10.4,-,N/A,,Overcast,260,2011-11-12 22:53:00
4:53 PM,28.0,12.9,53,29.61,10.0,WSW,9.2,-,N/A,,Overcast,250,2011-11-12 23:53:00
5:53 PM,27.0,12.9,56,29.62,10.0,West,11.5,18.4,N/A,,Mostly Cloudy,260,2011-11-13 00:53:00
6:53 PM,27.0,14.0,58,29.60,10.0,WSW,5.8,-,N/A,,Scattered Clouds,240,2011-11-13 01:53:00
7:53 PM,28.0,14.0,56,29.59,10.0,SW,11.5,17.3,N/A,,Overcast,230,2011-11-13 02:53:00
8:53 PM,28.0,15.1,58,29.61,10.0,West,8.1,-,N/A,,Overcast,260,2011-11-13 03:53:00
9:53 PM,28.9,14.0,54,29.57,10.0,SW,11.5,27.6,N/A,,Overcast,230,2011-11-13 04:53:00
10:53 PM,28.9,14.0,54,29.58,10.0,WSW,10.4,17.3,N/A,,Overcast,250,2011-11-13 05:53:00
11:53 PM,28.9,14.0,54,29.57,10.0,SW,12.7,19.6,N/A,,Overcast,230,2011-11-13 06:53:00